{"data":{"norad_id":64078,"epoch":"2026-09-20T03:58:20.793216Z","epoch_age_seconds":172476,"freshness":"FRESH","line1":"1 64078U 25107Q   26263.16551844  .00011689  00000+0  43347-3 0  9991","line2":"2 64078  43.0027 183.1992 0000697 351.1717   8.9122 15.27590011 75862","mean_motion":15.27590011,"eccentricity":6.97e-5,"inclination_deg":43.0027,"raan_deg":183.1992,"arg_perigee_deg":351.1717,"mean_anomaly_deg":8.9122,"bstar":0.00043347,"rev_number":7586,"period_min":94.266130940287,"perigee_km":482.54089708638,"apogee_km":483.49734224946,"semimajor_km":6861.1561196679,"source":"CELESTRAK","updated_at":"2026-09-21T09:00:35.194674Z"}}